Tracking 19827 objects as of 21-Aug-2019
HD Live streaming from Space Station
objects crossing your sky now

DMSP 5D-2 F8 DEB


DMSP 5D-2 F8 DEB is no longer on orbit


NORAD ID: 36855
Int'l Code: 1987-053G
Perigee: N/A
Apogee: N/A
Inclination: N/A
Period: N/A
Semi major axis: N/A
RCS: N/A
Launch date: June 20, 1987
Source: United States (US)
Launch site: AIR FORCE WESTERN TEST RANGE (AFWTR)
Decay date: 2011-10-26

Note: This is SATELLITE DEBRIS
aabbcc
Your satellite tracking list
Your tracking list is empty




NASA's NSSDC Master Catalog

Two Line Element Set (TLE):
1 36855U 87053G   11290.54044760 +.02379970 +00000-0 +12270-0 0  9992
2 36855 098.7711 140.6839 0049764 344.3419 017.5670 15.11769803093066
Source of the keplerian elements: AFSPC